Radiation Dose at Monitoring Post of Fukushima Daini Nuclear Power Station
Date,Time,MP-1(microSv/h),MP-2(microSv/h),MP-3(microSv/h),MP-4(microSv/h),MP-5(microSv/h),MP-6(microSv/h),MP-7(microSv/h),Wind Direction,Wind Velocity(m/s),Rain
2021/03/09,00:00,0.176,0.158,0.258,0.243,0.238,0.138,0.084,north-northwest,5.2,No
2021/03/09,00:10,0.175,0.158,0.257,0.243,0.238,0.139,0.084,north-northwest,5.4,No
2021/03/09,00:20,0.176,0.159,0.256,0.242,0.237,0.138,0.084,north-northwest,5.7,No
2021/03/09,00:30,0.175,0.159,0.256,0.243,0.238,0.140,0.085,northwest,6.1,No
2021/03/09,00:40,0.176,0.158,0.258,0.242,0.238,0.139,0.085,northwest,6.7,No
2021/03/09,00:50,0.176,0.159,0.257,0.243,0.238,0.139,0.084,northwest,7.6,No
2021/03/09,01:00,0.177,0.158,0.257,0.242,0.238,0.137,0.084,northwest,7.0,No
2021/03/09,01:10,0.175,0.160,0.257,0.243,0.237,0.138,0.084,north-northwest,7.3,No
2021/03/09,01:20,0.176,0.159,0.255,0.243,0.238,0.139,0.084,northwest,7.0,No
2021/03/09,01:30,0.175,0.159,0.256,0.243,0.237,0.138,0.084,northwest,6.5,No
2021/03/09,01:40,0.176,0.158,0.257,0.242,0.237,0.138,0.084,northwest,6.1,No
2021/03/09,01:50,0.176,0.159,0.256,0.243,0.238,0.137,0.084,northwest,6.2,No
2021/03/09,02:00,0.175,0.158,0.256,0.244,0.236,0.139,0.084,north-northwest,6.3,No
2021/03/09,02:10,0.176,0.158,0.256,0.243,0.238,0.139,0.084,north-northwest,6.5,No
2021/03/09,02:20,0.176,0.159,0.256,0.242,0.237,0.138,0.084,north-northwest,5.9,No
2021/03/09,02:30,0.175,0.159,0.257,0.242,0.238,0.139,0.084,north-northwest,5.4,No
2021/03/09,02:40,0.176,0.159,0.257,0.243,0.237,0.139,0.084,north-northwest,4.8,No
2021/03/09,02:50,0.176,0.158,0.256,0.242,0.237,0.138,0.085,north-northwest,4.9,No
2021/03/09,03:00,0.176,0.160,0.257,0.243,0.237,0.138,0.085,north-northwest,5.1,No
2021/03/09,03:10,0.176,0.159,0.256,0.242,0.237,0.137,0.084,north-northwest,5.0,No
2021/03/09,03:20,0.176,0.159,0.257,0.242,0.238,0.138,0.084,north-northwest,5.4,No
2021/03/09,03:30,0.176,0.158,0.257,0.243,0.238,0.139,0.084,north-northwest,5.4,No
2021/03/09,03:40,0.177,0.159,0.257,0.242,0.237,0.138,0.085,north-northwest,5.7,No
2021/03/09,03:50,0.176,0.159,0.257,0.242,0.239,0.138,0.083,north-northwest,5.2,No
2021/03/09,04:00,0.176,0.158,0.256,0.242,0.238,0.138,0.084,northwest,5.7,No
2021/03/09,04:10,0.175,0.158,0.256,0.242,0.238,0.138,0.085,northwest,5.0,No
2021/03/09,04:20,0.175,0.158,0.256,0.243,0.237,0.138,0.083,northwest,5.6,No
2021/03/09,04:30,0.177,0.159,0.257,0.243,0.240,0.138,0.084,northwest,5.8,No
2021/03/09,04:40,0.176,0.158,0.256,0.242,0.236,0.139,0.084,northwest,5.9,No
2021/03/09,04:50,0.175,0.159,0.257,0.244,0.239,0.138,0.084,northwest,5.8,No
2021/03/09,05:00,0.176,0.158,0.257,0.243,0.238,0.138,0.085,northwest,5.8,No
2021/03/09,05:10,0.175,0.158,0.258,0.243,0.238,0.138,0.085,northwest,5.5,No
2021/03/09,05:20,0.176,0.159,0.258,0.242,0.238,0.138,0.084,northwest,5.4,No
2021/03/09,05:30,0.177,0.159,0.257,0.242,0.238,0.138,0.083,northwest,5.2,No
2021/03/09,05:40,0.175,0.159,0.257,0.242,0.238,0.138,0.085,northwest,5.8,No
2021/03/09,05:50,0.176,0.160,0.258,0.242,0.236,0.138,0.085,northwest,5.5,No
2021/03/09,06:00,0.175,0.158,0.256,0.242,0.237,0.139,0.085,northwest,5.3,No
2021/03/09,06:10,0.176,0.158,0.256,0.242,0.238,0.138,0.084,northwest,4.7,No
2021/03/09,06:20,0.175,0.159,0.256,0.242,0.238,0.138,0.085,northwest,3.4,No
2021/03/09,06:30,0.174,0.158,0.256,0.242,0.237,0.138,0.084,northwest,4.8,No
2021/03/09,06:40,0.176,0.158,0.257,0.242,0.238,0.139,0.084,northwest,5.4,No
2021/03/09,06:50,0.176,0.158,0.256,0.243,0.237,0.138,0.084,northwest,5.0,No
2021/03/09,07:00,0.175,0.159,0.257,0.242,0.237,0.138,0.085,northwest,4.6,No
2021/03/09,07:10,0.175,0.158,0.257,0.242,0.237,0.139,0.084,north-northwest,5.5,No
2021/03/09,07:20,0.176,0.158,0.257,0.242,0.238,0.138,0.084,northwest,5.7,No
2021/03/09,07:30,0.177,0.158,0.257,0.242,0.237,0.138,0.083,northwest,5.1,No
2021/03/09,07:40,0.175,0.159,0.256,0.243,0.237,0.139,0.084,northwest,4.5,No
2021/03/09,07:50,0.175,0.159,0.257,0.242,0.238,0.138,0.085,northwest,4.5,No
2021/03/09,08:00,0.176,0.158,0.257,0.242,0.238,0.139,0.084,north-northwest,4.7,No
2021/03/09,08:10,0.175,0.158,0.256,0.241,0.238,0.138,0.084,northwest,3.2,No
2021/03/09,08:20,0.176,0.159,0.256,0.242,0.237,0.138,0.084,north-northwest,2.9,No
2021/03/09,08:30,0.175,0.158,0.256,0.242,0.238,0.138,0.083,north-northwest,2.6,No
2021/03/09,08:40,0.175,0.157,0.256,0.241,0.238,0.138,0.084,north-northwest,3.0,No
2021/03/09,08:50,0.176,0.158,0.255,0.242,0.237,0.138,0.084,north-northwest,1.7,No
2021/03/09,09:00,0.175,0.158,0.256,0.242,0.237,0.139,0.083,northwest,2.3,No
2021/03/09,09:10,0.175,0.157,0.255,0.242,0.238,0.138,0.084,northwest,2.2,No
2021/03/09,09:20,0.175,0.159,0.257,0.242,0.237,0.138,0.084,north-northeast,2.7,No
2021/03/09,09:30,0.174,0.158,0.257,0.241,0.237,0.138,0.084,northeast,2.3,No
2021/03/09,09:40,0.174,0.158,0.257,0.242,0.237,0.137,0.084,north-northeast,1.9,No
2021/03/09,09:50,0.174,0.158,0.257,0.242,0.236,0.137,0.084,north-northeast,3.0,No
2021/03/09,10:00,0.173,0.158,0.256,0.241,0.238,0.137,0.085,northeast,2.9,No
2021/03/09,10:10,0.176,0.159,0.255,0.242,0.238,0.138,0.083,northeast,3.1,No
2021/03/09,10:20,0.175,0.158,0.255,0.241,0.239,0.138,0.084,north-northeast,2.4,No
2021/03/09,10:30,0.174,0.158,0.257,0.243,0.237,0.140,0.084,northeast,2.3,No
2021/03/09,10:40,0.174,0.158,0.256,0.241,0.238,0.139,0.084,northeast,2.5,No
2021/03/09,10:50,0.175,0.159,0.257,0.243,0.240,0.140,0.085,east,1.7,No
2021/03/09,11:00,0.174,0.158,0.256,0.242,0.238,0.138,0.084,east-northeast,3.1,No
2021/03/09,11:10,0.175,0.158,0.255,0.242,0.239,0.139,0.084,east-northeast,2.8,No
2021/03/09,11:20,0.175,0.158,0.255,0.243,0.238,0.138,0.084,east-northeast,3.0,No
2021/03/09,11:30,0.175,0.158,0.257,0.242,0.236,0.139,0.084,east,3.0,No
2021/03/09,11:40,0.175,0.158,0.256,0.241,0.237,0.137,0.084,east,3.5,No
2021/03/09,11:50,0.174,0.159,0.255,0.242,0.236,0.138,0.084,east,3.6,No
2021/03/09,12:00,0.175,0.157,0.256,0.241,0.237,0.138,0.084,east-southeast,4.3,No
2021/03/09,12:10,0.175,0.158,0.256,0.243,0.238,0.138,0.083,east-southeast,3.8,No
2021/03/09,12:20,0.175,0.159,0.257,0.241,0.238,0.138,0.084,east-southeast,3.9,No
2021/03/09,12:30,0.175,0.158,0.255,0.242,0.237,0.139,0.084,east-southeast,3.3,No
2021/03/09,12:40,0.175,0.158,0.258,0.242,0.239,0.138,0.084,east-southeast,3.4,No
2021/03/09,12:50,0.174,0.158,0.255,0.243,0.236,0.139,0.085,east-southeast,3.0,No
2021/03/09,13:00,0.174,0.158,0.257,0.243,0.239,0.138,0.084,east-southeast,3.1,No
2021/03/09,13:10,0.174,0.159,0.256,0.241,0.237,0.139,0.084,east-southeast,3.0,No
2021/03/09,13:20,0.175,0.158,0.257,0.242,0.240,0.138,0.084,east-southeast,2.9,No
2021/03/09,13:30,0.174,0.159,0.256,0.242,0.236,0.139,0.084,southeast,3.2,No
2021/03/09,13:40,0.175,0.159,0.256,0.243,0.239,0.138,0.083,southeast,3.6,No
2021/03/09,13:50,0.174,0.157,0.256,0.241,0.236,0.138,0.084,east-southeast,4.0,No
2021/03/09,14:00,0.176,0.158,0.255,0.243,0.238,0.138,0.083,southeast,4.1,No
2021/03/09,14:10,0.174,0.158,0.257,0.241,0.236,0.139,0.084,east-southeast,3.1,No
2021/03/09,14:20,0.176,0.159,0.255,0.241,0.240,0.137,0.084,southeast,4.2,No
2021/03/09,14:30,0.175,0.157,0.256,0.242,0.237,0.138,0.084,southeast,3.8,No
2021/03/09,14:40,0.175,0.159,0.255,0.242,0.239,0.138,0.083,southeast,4.6,No
2021/03/09,14:50,0.174,0.159,0.257,0.243,0.236,0.138,0.083,south-southeast,4.8,No
2021/03/09,15:00,0.175,0.158,0.257,0.241,0.238,0.138,0.083,south-southeast,5.6,No
2021/03/09,15:10,0.175,0.158,0.256,0.244,0.237,0.139,0.084,south-southeast,6.2,No
2021/03/09,15:20,0.176,0.158,0.257,0.243,0.239,0.138,0.084,south-southeast,6.8,No
2021/03/09,15:30,0.174,0.158,0.257,0.242,0.239,0.138,0.084,south-southeast,8.1,No
2021/03/09,15:40,0.177,0.157,0.258,0.242,0.237,0.138,0.084,south-southeast,7.9,No
2021/03/09,15:50,0.175,0.159,0.257,0.244,0.239,0.138,0.084,south-southeast,6.7,No
2021/03/09,16:00,0.176,0.159,0.258,0.242,0.238,0.138,0.083,south-southeast,6.0,No
2021/03/09,16:10,0.177,0.158,0.259,0.244,0.238,0.139,0.084,south-southeast,7.1,No
2021/03/09,16:20,0.177,0.158,0.256,0.243,0.239,0.138,0.083,south-southeast,7.9,No
2021/03/09,16:30,0.176,0.159,0.257,0.244,0.238,0.139,0.084,south,6.7,No
2021/03/09,16:40,0.176,0.160,0.258,0.243,0.238,0.139,0.084,south-southeast,6.1,No
2021/03/09,16:50,0.175,0.158,0.256,0.244,0.239,0.139,0.084,south-southeast,4.6,No
2021/03/09,17:00,0.176,0.158,0.256,0.245,0.238,0.138,0.084,south,4.2,No
2021/03/09,17:10,0.175,0.159,0.257,0.243,0.239,0.140,0.083,south,6.3,No
2021/03/09,17:20,0.176,0.159,0.257,0.243,0.239,0.139,0.085,south,5.8,No
2021/03/09,17:30,0.175,0.159,0.256,0.244,0.238,0.138,0.083,south,4.1,No
2021/03/09,17:40,0.175,0.160,0.256,0.245,0.239,0.140,0.085,south,4.6,No
2021/03/09,17:50,0.175,0.159,0.259,0.243,0.240,0.139,0.084,south-southwest,5.4,No
2021/03/09,18:00,0.176,0.159,0.257,0.244,0.238,0.139,0.084,south-southwest,6.1,No
2021/03/09,18:10,0.175,0.159,0.256,0.243,0.239,0.139,0.084,south-southwest,5.5,No
2021/03/09,18:20,0.176,0.159,0.257,0.242,0.238,0.139,0.084,south-southwest,5.7,No
2021/03/09,18:30,0.176,0.158,0.256,0.244,0.239,0.138,0.083,south-southwest,4.8,No
2021/03/09,18:40,0.175,0.158,0.257,0.243,0.239,0.138,0.084,south-southwest,4.9,No
2021/03/09,18:50,0.175,0.159,0.257,0.243,0.238,0.139,0.084,south-southwest,5.0,No
2021/03/09,19:00,0.176,0.159,0.257,0.243,0.238,0.139,0.084,south-southwest,5.3,No
2021/03/09,19:10,0.175,0.158,0.256,0.244,0.239,0.139,0.084,south-southwest,5.5,No
2021/03/09,19:20,0.176,0.158,0.256,0.243,0.239,0.138,0.084,south-southwest,5.9,No
2021/03/09,19:30,0.176,0.158,0.257,0.242,0.238,0.139,0.084,south-southwest,6.6,No
2021/03/09,19:40,0.175,0.159,0.257,0.242,0.239,0.138,0.085,south-southwest,5.6,No
2021/03/09,19:50,0.176,0.159,0.258,0.243,0.239,0.139,0.085,south-southwest,6.2,No
2021/03/09,20:00,0.175,0.161,0.256,0.243,0.238,0.139,0.085,south-southwest,6.1,No
2021/03/09,20:10,0.175,0.158,0.257,0.243,0.238,0.138,0.085,south-southwest,5.1,No
2021/03/09,20:20,0.175,0.159,0.257,0.243,0.239,0.139,0.085,south-southwest,5.1,No
2021/03/09,20:30,0.176,0.159,0.258,0.242,0.237,0.139,0.084,south-southwest,4.9,No
2021/03/09,20:40,0.176,0.158,0.257,0.243,0.239,0.139,0.084,south-southwest,5.0,No
2021/03/09,20:50,0.176,0.159,0.257,0.243,0.237,0.139,0.084,south,5.2,No
2021/03/09,21:00,0.176,0.159,0.257,0.243,0.237,0.139,0.084,south-southwest,4.9,No
2021/03/09,21:10,0.176,0.159,0.257,0.243,0.239,0.139,0.084,south-southwest,4.4,No
2021/03/09,21:20,0.176,0.158,0.256,0.243,0.239,0.139,0.085,south-southwest,4.4,No
2021/03/09,21:30,0.176,0.160,0.257,0.244,0.237,0.139,0.084,southwest,3.9,No
2021/03/09,21:40,0.176,0.160,0.258,0.242,0.239,0.139,0.085,south-southwest,4.4,No
2021/03/09,21:50,0.175,0.159,0.258,0.242,0.238,0.139,0.084,south-southwest,4.2,No
2021/03/09,22:00,0.176,0.158,0.257,0.245,0.238,0.139,0.084,southwest,4.0,No
2021/03/09,22:10,0.176,0.159,0.257,0.243,0.239,0.140,0.085,south-southwest,4.5,No
2021/03/09,22:20,0.176,0.159,0.258,0.242,0.239,0.139,0.084,south-southwest,4.0,No
2021/03/09,22:30,0.176,0.159,0.257,0.244,0.238,0.139,0.085,south-southwest,3.7,No
2021/03/09,22:40,0.175,0.159,0.257,0.244,0.239,0.139,0.084,southwest,3.6,No
2021/03/09,22:50,0.175,0.159,0.257,0.242,0.238,0.139,0.085,south-southwest,3.8,No
2021/03/09,23:00,0.176,0.159,0.258,0.244,0.238,0.139,0.084,south-southwest,4.0,No
2021/03/09,23:10,0.176,0.160,0.257,0.243,0.240,0.139,0.084,southwest,4.0,No
2021/03/09,23:20,0.175,0.160,0.257,0.243,0.238,0.139,0.084,south-southwest,4.3,No
2021/03/09,23:30,0.175,0.159,0.258,0.243,0.239,0.139,0.084,southwest,4.3,No
2021/03/09,23:40,0.177,0.159,0.258,0.245,0.239,0.139,0.084,southwest,4.5,No
2021/03/09,23:50,0.177,0.160,0.258,0.243,0.238,0.139,0.085,west-southwest,4.7,No
